Location: Gwatt
(46.7204°N, 7.6223°E)
Time: 21:56:45
(UTC+00:00)

Vanguard 2 Rocket - Pass Details

Date: 05 February 2021
Orbit: 554 x 3326 km, 32.9° (Epoch: 25 February)

Event Time Altitude Azimuth Distance (km) Brightness Sun altitude
Rises 16:58:25 0° 275° (W) 6,642 12.8 -3.9°
Reaches altitude 10° 17:05:04 10° 261° (W) 5,114 12.5 -5.0°
Maximum altitude 17:13:20 19° 224° (SW) 3,658 10.9 -6.3°
Drops below altitude 10° 17:19:29 10° 185° (S) 3,626 10.2 -7.3°
Sets 17:23:06 0° 166° (SSE) 4,173 10.3 -7.9°
